Lid_Strength_Index
1 -1 -1 -1 -1 -1 -1 -1 -1 -1 -1 -1 -1 -1 -1 -1 -1 -1 -1 -1 -1 -1 -2 -1 -1 -2 -1 -1 -1 -1 -1 -1 -1 -1 -1 -1 -1 -1 -1 -1 -1 -1 -1
-0 -1 -1 -2 -1 -1 -1 -1 -1 -1 -1 -1 -1 -1 -1 -1 -1 -1 -1 -1 -1 -1 -2 -2 -1 -1 -1 -1 -1 -1 -1 -1 -1 -1 -1 -1 -1 -1 -1 -1 -1 -1 -1
0 -1 -1 -1 -1 -1 -1 -1 -1 -1 -1 -2 -1 -1 -2 -1 -1 -1 -1 -1 -1 -1 -1 -1 -1 -1 -1 -1 -1 -1 -1 -1 -1 -1 -1 -1 -1 -1 -1 -1 -1 -1 -1
-0 -1 -1 -1 -1 -1 -1 -1 -1 -1 -1 -2 -2 -1 -1 -1 -1 -2 -2 -1 -1 -1 -1 -1 -1 -1 -1 -1 -1 -1 -1 -1 -1 -1 -1 -1 -1 -1 -1 -1 -2 -1 -1
-0 -1 -1 -1 -1 -1 -1 -1 -1 -1 -1 -2 -2 -1 -1 -1 -1 -1 -2 -2 -1 -1 -1 -1 -1 -1 -1 -1 -1 -1 -1 -1 -1 -1 -1 -1 -1 -1 -1 -2 -2 -1 -1
-0 -1 -1 -1 -1 -1 -2 -1 -1 -1 -1 -2 -2 -1 -1 -1 -1 -1 -3 -3 -2 -1 -1 -1 -1 -1 -1 -1 -1 -1 -1 -1 -2 -1 -1 -1 -1 -1 -2 -2 -2 -2 -2
0 -1 -1 -1 -1 -1 -1 -1 -1 -1 -1 -1 -1 -1 -1 -1 -1 -1 -1 -2 -1 -1 -1 -1 -1 -1 -1 -1 -1 -1 -1 -2 -1 -1 -1 -1 -1 -1 -2 -2 -2 -2 -2
0 -0 -1 -1 -1 -1 -1 -1 -2 -1 -1 -1 -2 -1 -1 -1 -1 -1 -1 -1 -1 -1 -1 -1 -1 -1 -1 -1 -1 -1 -1 -1 -1 -1 -1 -1 -1 -2 -2 -1 -1 -2 -2
-0 -0 -0 -1 -1 -1 -1 -1 -1 -2 -2 -2 -2 -2 -2 -1 -1 -1 -1 -1 -1 -1 -1 -1 -1 -1 -1 -1 -1 -1 -1 -1 -1 -1 -1 -1 -1 -1 -1 -1 -1 -1 -2
0 -0 -0 -1 -1 -1 -1 -1 -1 -1 -2 -2 -2 -1 -1 -1 -1 -1 -1 -1 -1 -1 -1 -1 -1 -1 -1 -1 -1 -1 -1 -0 -0 -1 -1 -1 -1 -1 -1 -1 -1 -1 -2
1 0 0 -0 -0 -1 -1 -1 -1 -1 -1 -1 -1 -1 -1 -1 -1 -1 -1 -1 -1 -1 -1 -1 -1 -0 0 1 1 1 1 1 2 1 0 -1 -1 -1 -1 -2 -2 -2 -1
2 1 0 0 -0 -0 -0 -1 -1 -1 -1 -1 -1 -1 -1 -1 -1 -1 -1 -1 -1 -1 -1 0 2 3 3 4 3 3 4 4 3 3 2 -0 -1 -2 -2 -2 -2 -2 -2
2 1 1 0 0 -0 -0 -1 -1 -1 -1 -1 -1 -1 -1 -1 -1 -1 -1 -1 -1 0 3 4 5 5 5 6 6 6 5 6 6 4 3 0 -1 -1 -1 -1 -2 -1 -1
2 1 1 0 1 1 -0 -0 -1 -0 -1 -1 -1 -1 -1 -1 -1 -1 -1 0 2 5 6 6 6 7 7 8 8 7 8 7 6 4 4 2 1 -1 -2 -1 -1 -1 -1
2 1 1 0 1 1 -0 -0 -0 -0 -0 -1 -1 -1 -1 -0 -0 1 5 5 6 6 7 7 7 8 9 9 9 8 9 7 7 6 5 3 1 1 1 0 1 0 -0
2 1 1 0 1 1 0 0 -0 0 -0 -0 -1 -1 -0 -0 3 5 6 6 6 7 8 8 9 9 10 10 10 9 9 8 8 8 6 6 4 3 2 2 2 2 2
3 2 1 1 0 0 0 0 -0 0 0 0 0 0 0 4 5 6 7 8 8 8 9 9 10 9 10 11 11 10 9 8 8 8 7 7 6 6 4 4 4 4 3
3 3 1 0 0 0 1 0 1 1 1 2 2 3 5 6 6 8 8 9 9 9 10 10 10 10 11 11 11 10 9 8 9 8 8 9 8 8 8 6 6 5 5
3 2 1 1 1 1 1 1 3 4 4 5 5 6 7 7 7 8 9 9 10 10 10 10 11 11 11 11 10 9 9 8 9 9 9 9 9 9 9 8 8 8 7
3 2 1 1 1 2 4 7 8 8 8 7 8 8 9 9 9 9 10 10 10 11 10 11 12 11 12 11 11 11 9 7 9 9 10 9 10 10 10 10 10 10 9
2 1 1 1 3 5 6 8 8 9 10 10 10 10 10 10 9 9 10 11 11 12 12 12 12 13 12 11 11 11 10 9 9 9 10 9 11 10 10 10 10 11 10
2 2 2 2 4 5 5 5 7 9 11 11 11 11 11 10 10 10 11 11 12 12 13 13 13 12 12 11 13 12 13 11 10 11 10 10 11 10 11 11 11 11 11
3 2 3 4 5 5 7 9 11 12 12 12 12 12 11 10 11 11 11 12 12 12 13 13 13 13 13 12 12 13 14 15 14 11 11 10 11 11 11 11 12 11 11
3 2 4 6 5 7 8 9 10 9 11 11 12 12 11 11 12 12 12 12 12 13 13 13 13 13 12 13 12 13 13 13 15 15 12 12 12 13 12 12 12 12 11
3 3 5 6 6 8 8 8 10 11 11 11 12 12 12 12 12 12 12 12 13 13 13 13 13 13 13 13 13 14 13 13 13 15 16 14 13 12 12 13 13 12 11
4 4 5 6 6 9 8 8 10 12 12 13 13 13 12 12 12 13 13 13 13 13 13 13 13 13 13 13 13 14 14 15 15 15 16 16 15 14 13 13 12 11 11